062  
ASUS44 KLUB 181810  
RWRLUB  
WEST TEXAS WEATHER ROUNDUP  
NATIONAL WEATHER SERVICE LUBBOCK TX  
100 PM CDT SUN AUG 18 2019  
 
NOTE: "FAIR" INDICATES FEW OR NO CLOUDS BELOW 12,000 FEET WITH NO  
SIGNIFICANT WEATHER AND/OR S TO VISIBILITY
.  
 
TXZ004-006>008-010-012-014-016-OKZ002-181900-  
TEXAS PANHANDLE/OKLAHOMA PANHANDLE  
 
CITY SKY/WX TMP DP RH WIND PRES REMARKS
 
AMARILLO SUNNY 94 52 24 NW10 29.94S  
BORGER SUNNY 91 55 29 W3 29.92F  
CANADIAN SUNNY 93 65 38 W6 29.88R HX 95  
DALHART SUNNY 89 56 32 N13 29.99F  
DUMAS SUNNY 88 60 38 N9 29.97S  
GUYMON SUNNY 91 59 33 NE8 29.92S  
HEREFORD SUNNY 99 41 13 W5 29.97S  
PAMPA SUNNY 92 53 26 CALM 29.94F  
PERRYTON SUNNY 89 58 35 E5 29.90S  

 
 
TXZ026-029-035-045-048-181900-  
SOUTHERN PANHANDLE/SOUTH PLAINS/ROLLING PLAINS  
 
CITY SKY/WX TMP DP RH WIND PRES REMARKS
 
CHILDRESS SUNNY 99 66 33 SW10 29.85F HX 103  
SEMINOLE SUNNY 96 56 25 SW7 29.98F  
LUBBOCK MOSUNNY 96 60 30 SW13 29.94S HX 96  
PLAINVIEW SUNNY 94 58 30 SW10G16 29.94F  
SNYDER SUNNY 97 65 34 S13 29.91S HX 100  

 
 
TXZ052-054-060>062-072-078-127-140-154-169-181900-  
PERMIAN BASIN/CONCHO VALLEY/BIG COUNTRY/EDWARDS PLATEAU  
 
CITY SKY/WX TMP DP RH WIND PRES REMARKS
 
ABILENE SUNNY 99 63 30 S17 29.89F HX 101  
BRADY SUNNY 93 64 38 SW8G21 29.92F HX 95  
JUNCTION SUNNY 95 66 38 SW13G20 29.92F HX 98  
MIDLAND SUNNY 97 63 32 S10G20 29.92S HX 98  
ODESSA SUNNY 96 59 29 SW14 29.94S HX 95  
SAN ANGELO SUNNY 100 64 30 S14 29.89F HX 102  
SONORA SUNNY 95 64 36 E10G18 29.97F HX 97  
SWEETWATER SUNNY 99 61 28 S15 29.93F HX 99  
WINK SUNNY 98 53 22 VRB3 29.90S HX 96  

 
 
TXZ055-058-074-075-080-082-181900-  
FAR WEST/SOUTHWEST MOUNTAINS/TRANS PECOS  
 
CITY SKY/WX TMP DP RH WIND PRES REMARKS
 
ALPINE SUNNY 95 50 21 W10 30.12S  
DRYDEN N/A 96 63 33 VRB5 29.90F HX 97  
EL PASO MOSUNNY 94 38 14 SE5 30.03S  
FORT STOCKTON SUNNY 101 52 19 VRB3 29.93S HX 98  
GUADALUPE PASS SUNNY 91 37 15 W22G29 30.14F  
MARFA SUNNY 92 53 26 W10 30.12F  
PECOS SUNNY 104 49 16 W12G17 29.88F HX 100  
PRESIDIO FAIR 91 59 34 S7 30.00F  

 
 
TXZ014-016-019-021>030-083-181900  
TEXAS TECH WEST TEXAS MESONET/TEXAS PANHANDLE/NORTHERN SOUTH PLAINS  
 
CITY SKY/WX TMP DP RH WIND PRES REMARKS
 
ABERNATHY 5ENE N/A 94 59 30 SW12 29.96S  
AMARILLO 9NNE N/A 94 57 29 N7 29.93S  
AMARILLO 7SSE N/A 99 48 17 NW7 29.95F HX 95  
AMHERST 1NE N/A 96 52 22 SW5 29.96F  
BOOTLEG 11WNW N/A 94 40 15 NW6 30.05S  
CANADIAN 6E N/A 92 65 40 CALM 29.87S  
CAPROCK CYN SP N/A 99 57 24 S8 29.89S HX 98  
CHILDRESS 2NNE N/A 100 61 27 SW5 29.84F HX 101  
CLARENDON 2WSW N/A 97 56 25 S6 29.89F HX 95  
CLAUDE 12SW N/A 98 51 20 SW5 29.93S HX 95  
DIMMITT 2NE N/A 99 40 13 W1 29.97S  
FLOYDADA 2NNE N/A 96 59 29 S16 29.93F HX 95  
FRIONA 2NE N/A 99 31 9 NW5 29.99S  
GOODLETT 3W N/A 100 63 29 S7 29.83F HX 102  
HART 3N N/A 96 51 21 SW7 29.97S  
HEREFORD 2NW N/A 97 37 12 N6 29.97S  
MCLEAN 1E N/A 87 67 50 SE5 29.90F  
MEMPHIS 1NE N/A 98 61 29 E6 29.85F HX 98  
MULESHOE 2SSW N/A 97 38 13 N3 29.98S  
OLTON 6S N/A 95 53 24 SW5 29.96S  
PALO DURO SP N/A 102 46 15 W3 29.94S HX 98  
PAMPA 2E N/A 92 58 32 SE6 29.93S  
PLAINVIEW 1S N/A 94 58 29 SW12 29.94S  
SILVERTON 7ESE N/A 99 57 24 SW10 29.92F HX 97  
TULIA 2ENE N/A 99 55 23 SW8 29.94S HX 97  
TURKEY 2WSW N/A 99 60 27 S10 29.87S HX 99  
UMBARGER 3NNE N/A 100 36 10 W6 29.96S HX 95  

 
 
TXZ033>036-039>041-045>048-181900  
TEXAS TECH WEST TEXAS MESONET/SOUTH PLAINS  
 
CITY SKY/WX TMP DP RH WIND PRES REMARKS
 
AIKEN 3WSW N/A 95 62 33 SW12 29.95S HX 96  
ANDREWS 2NE N/A 97 53 22 SW7 29.94F HX 95  
ANTON 6SSW N/A 95 58 29 S7 29.95S  
BROWNFIELD 2S N/A 96 60 30 S7 29.95F HX 95  
DENVR CTY 7WNW N/A 94 52 24 S6 29.97S  
GAIL 2ESE N/A 101 61 26 S13 29.89F HX 102  
LAMESA 2SE N/A 97 60 28 S10 29.93F HX 97  
LUBBOCK 3WNW N/A 96 57 26 S8 29.94F HX 95  
MORTON 1ENE N/A 96 50 21 SE6 29.97S  
ODONNELL 1N N/A 98 62 30 S12 29.93F HX 99  
PLAINS 3N N/A 95 55 25 SE5 29.98S  
RALLS 1SE N/A 98 59 27 SW12 29.94F HX 97  
REESE CENTER N/A 94 61 33 S9 29.96S  
SEAGRAVES 1SW N/A 96 59 29 S6 29.95F HX 95  
SEMINOLE 2NNE N/A 97 53 22 S8 29.94F HX 95  
SLATON 2NE N/A 96 63 33 S10 29.94S HX 97  
SNYDER 3E N/A 100 62 28 S13 29.90S HX 101  
SUNDOWN 8SW N/A 95 55 25 SW6 29.97S  
TAHOKA 3NNE N/A 98 65 33 SW12 29.93F HX 101  
WOLFFORTH 6SSW N/A 95 62 33 S9 29.95F HX 95  

 
 
TXZ031-032-036>038-042>044-181900-  
TEXAS TECH WEST TEXAS MESONET/ROLLING PLAINS  
 
CITY SKY/WX TMP DP RH WIND PRES REMARKS
 
ASPERMONT 3NE N/A 101 67 33 SW15 29.85F HX 106  
FLUVANNA 3WNW N/A 97 64 33 S13 29.91F HX 99  
GRAHAM 5SSW N/A 97 61 30 S13 29.92F HX 97  
GUTHRIE 10WSW N/A 101 64 29 S14 29.85F HX 104  
HASKELL 1NW N/A 100 67 34 S12 29.85S HX 104  
JAYTON 1SSE N/A 99 66 33 S12 29.86F HX 103  
KNOX CITY 3NW N/A 102 68 33 S14 29.83S HX 108  
LK A HENRY 1NW N/A 101 65 30 S10 29.87F HX 105  
NORTHFIELD 1S N/A 103 59 23 W12 29.84F HX 103  
ODELL 4ENE N/A 98 71 41 SE10 29.85S HX 105  
PADUCAH 10SW N/A 100 64 29 SW14 29.85S HX 103  
POST 1NE N/A 101 60 26 S12 29.89F HX 101  
RRING SPRGS 3N N/A 100 63 29 S14 29.88F HX 102  
SEYMOUR 3NW N/A 101 67 33 S9G18 29.84S HX 106  
SPUR 1W N/A 98 65 32 SW12 29.87S HX 101  
WEINERT 2NNE N/A 101 70 36 S15 29.85S HX 108  
WHITE RVR 6NE N/A 100 62 29 S13 29.89F HX 101  

 
 
TXZ052-054-060>062-072-078-127-140-154-169-181900-  
TEXAS TECH WEST TEXAS MESONET/PERMIAN BASIN/  
CONCHO VALLEY/BIG COUNTRY/EDWARDS PLATEAU  
 
CITY SKY/WX TMP DP RH WIND PRES REMARKS
 
COYANOSA 2N N/A 102 54 19 NW2 29.89F HX 100  
JUNCTION 1SSW N/A 96 65 36 S10 29.92F HX 99  
MERTZON 3NNE N/A 99 64 31 S14 29.92F HX 102  
SAN ANGELO 7NW N/A 99 59 26 S12 29.90F HX 99  
STRLNG CT 4WSW N/A 101 63 28 SE10 29.91F HX 102  
ST LAWRNCE 5SW N/A 97 61 30 S13 29.93S HX 98  
SWEETWATR 11SW N/A 99 64 31 S17 29.92F HX 101  
WALL 1E N/A 98 66 35 S9 29.91F HX 101  

 
 
TXZ055-058-074-075-080-082-181900-  
TEXAS TECH WEST TEXAS MESONET/FAR WEST/SOUTHWEST MOUNTAINS/TRANS PECOS  
 
CITY SKY/WX TMP DP RH WIND PRES REMARKS
 
PRSMN GAP BBNP N/A 98 58 26 S13 29.95F HX 98  
GUADLPE MTN NP N/A 92 38 15 SW10 30.14S  

 
 
 
CLICK HERE TO GO TO PREVIOUS BULLETINS.

The Nexlab TX Page Main Text Page